Location: Peyrusse
(43.7370°N, 0.5517°E)
Time: 23:20:38
(UTC+00:00)

Daily predictions for brighter satellites

Satellite Brightness Start Highest point End
(mag) Time Altitude Azimuth Time Altitude Azimuth Time Altitude Azimuth
NOAA 6 4.4 16:44:01 10° SE 16:48:50 42° ENE 16:53:38 10° N
Sich 1 4.1 16:46:59 10° NNE 16:50:30 24° ENE 16:54:01 10° SE
Cosmos 2221 2.8 16:46:16 10° SSW 16:50:31 75° W 16:54:50 10° N
Cosmos 1980 Rocket 3.1 16:46:13 10° N 16:51:02 27° NE 16:55:47 10° ESE
Cosmos 1805 Rocket 4.2 16:48:39 10° N 16:52:34 32° ENE 16:56:27 10° SE
Cosmos 2369 4.3 16:47:51 10° N 16:53:05 35° NE 16:58:16 10° ESE
Cosmos 1842 Rocket 3.8 16:50:56 10° SSW 16:55:22 78° W 16:59:53 10° N
USA 234 3.4 16:49:25 10° ESE 16:55:48 58° NNE 17:02:10 10° NW
CZ-4C R/B 3.6 16:50:41 10° NNW 16:56:59 34° NE 17:04:14 10° E
Cosmos 1092 Rocket 4.2 16:52:31 10° N 16:58:42 50° ENE 17:04:48 10° SSE
Cosmos 2084 3.4 16:54:40 10° NW 16:59:00 76° NE 17:03:29 10° SE
NOSS 3-1 (A) 4.1 16:51:56 10° NW 16:59:32 78° NE 17:08:22 10° SE
Cosmos 1812 4.4 16:57:10 10° SE 16:59:32 16° E 17:01:55 10° NE
SL-16 R/B 3.9 16:59:40 10° NNE 17:01:47 12° NE 17:03:52 10° ENE
ISS -2.6 16:58:57 10° NW 17:01:59 29° NNE 17:04:59 10° E
Meteor 1-25 Rocket 4.2 16:58:50 10° N 17:04:22 60° ENE 17:09:54 10° SSE
SMAP 3.1 17:00:13 10° SSE 17:04:46 57° ENE 17:09:20 10° N
Cosmos 2082 Rocket 2.9 16:59:50 10° SSE 17:04:54 34° ESE 17:09:58 10° NE
Meteor PRIRODA 3.8 17:01:50 10° S 17:05:27 77° WSW 17:09:06 10° NNW
Cosmos 1939 Rocket 2.9 17:01:56 10° SSE 17:05:59 62° ENE 17:10:02 10° N
CORIOLIS 4.2 17:02:29 10° SSE 17:07:44 56° ENE 17:13:02 10° N
NOAA 12 4.3 17:05:37 10° SSE 17:10:57 83° WSW 17:16:18 10° NNW
CZ-4B DEB 4.3 17:08:45 10° SSE 17:14:07 55° ENE 17:19:29 10° N
Cosmos 2278 4.4 17:12:03 10° N 17:17:06 31° NE 17:22:07 10° ESE
Cosmos 1602 3.7 17:14:01 10° N 17:17:51 59° E 17:21:40 10° SSE
AQUARIUS 4.1 17:14:14 10° SSE 17:18:40 66° ENE 17:23:08 10° N
Cosmos 540 Rocket 3.4 17:14:49 10° S 17:19:52 68° ESE 17:24:57 10° NNE
Cosmos 1627 Rocket 4.5 17:14:04 10° N 17:20:12 62° E 17:26:14 10° SSE
Cosmos 2034 Rocket 4.3 17:15:05 10° SSW 17:21:13 69° W 17:27:22 10° N
Radarsat 4.5 17:17:57 10° SSE 17:23:08 74° ENE 17:28:20 10° N
ARGOS 3.9 17:19:46 10° SE 17:24:25 30° ENE 17:29:04 10° N
Cosmos 2279 Rocket 4.4 17:19:20 10° SSE 17:25:00 39° E 17:30:41 10° NNE
COSMOS 2406 3.2 17:19:44 10° SSW 17:25:29 83° ESE 17:31:15 10° NNE
Cosmos 1833 Rocket 2.9 17:21:12 10° SSW 17:26:49 75° WNW 17:32:28 10° NNE
COSMO-SKYMED 1 3.5 17:23:24 10° NE 17:27:10 28° E 17:30:55 10° SSE
Cosmos 1782 2.8 17:24:28 10° S 17:28:24 61° E 17:32:20 10° NNE
Meteor 2-21 4.4 17:25:08 10° N 17:31:12 66° E 17:37:11 10° SSE
ATLAS 5 CENTAUR R/B 3.5 17:24:53 10° NW 17:31:19 23° N 17:33:09 17° NE
Cosmos 1633 Rocket 3.7 17:31:48 10° N 17:35:46 33° ENE 17:39:43 10° SE
CZ-2D R/B 3.1 17:35:40 10° SSE 17:39:28 68° ENE 17:43:17 10° N
Cosmos 1898 Rocket 4.0 17:34:42 10° NNW 17:39:53 63° WSW 17:45:00 10° S
Cosmos 1634 Rocket 4.0 17:35:31 10° S 17:41:50 83° E 17:48:12 10° N
COSMOS 2455 2.8 17:36:44 10° SSW 17:42:44 82° ESE 17:48:13 13° NNE
PAYLOAD B 4.2 17:38:19 10° SSE 17:43:54 77° ENE 17:49:31 10° NNW
CZ-4B R/B 3.2 17:41:11 10° SSE 17:46:29 56° ENE 17:51:42 10° N
CZ-2C R/B 2.7 17:41:39 10° NNE 17:46:41 49° E 17:51:40 10° S
Cosmos 1500 3.0 17:43:36 10° N 17:47:22 86° E 17:51:05 10° S
Cosmos 1151 Rocket 3.1 17:43:13 10° S 17:47:24 53° E 17:51:27 11° NNE
Cosmos 2026 Rocket 4.0 17:42:50 10° N 17:49:00 83° W 17:55:04 10° S
Lacrosse 5 rocket 2.5 17:47:03 10° NNW 17:50:15 23° NNE 17:50:36 23° NE
Okean O Rocket 1.9 17:46:21 10° SE 17:50:33 44° ENE 17:54:49 10° N
Cosmos 2208 Rocket 4.3 17:53:26 10° S 17:58:35 49° ESE 18:01:39 24° NE
Cosmos 1666 Rocket 3.4 17:57:14 10° N 18:01:41 76° E 18:06:04 10° SSE
NOSS 2-2 (C) 4.4 17:57:08 10° NW 18:02:31 89° NE 18:10:09 10° SE
H-2A R/B 2.1 17:57:25 10° S 18:02:37 81° WSW 18:07:41 10° NNW
Meteor 1-11 Rocket 4.3 17:58:40 10° N 18:03:42 32° ENE 18:05:46 25° ESE
Cosmos 1470 Rocket 4.0 18:00:41 10° N 18:04:53 39° ENE 18:09:04 10° SE
Cosmos 1328 Rocket 3.6 18:00:34 10° S 18:04:55 58° E 18:07:30 23° NNE
USA 267 3.9 18:01:03 18° NE 18:05:42 46° NNW 18:11:52 10° W
Cosmos 1655 Rocket 4.2 18:00:54 10° N 18:07:03 46° ENE 18:13:07 10° SSE
USA 305 4.3 18:05:10 10° NW 18:08:33 22° N 18:08:46 22° NNE
Cosmos 2360 Rocket 4.0 18:05:18 10° N 18:07:10 15° NNE 18:07:10 15° NNE
Landsat 5 3.4 18:08:42 41° NE 18:09:46 55° E 18:13:39 10° S
Cosmos 2180 Rocket 4.4 18:07:19 10° S 18:13:38 72° E 18:19:54 10° NNE
Cosmos 841 Rocket 4.2 18:09:02 10° SW 18:14:04 53° WNW 18:18:54 11° N
SKYMED 2 3.5 18:12:00 17° NNE 18:15:23 87° WNW 18:19:43 10° SSW
Feng Yun 1-1 Rocket 4.4 18:10:10 10° SE 18:15:55 55° ENE 18:21:38 10° N
Cosmos 1666 2.7 18:13:06 10° N 18:16:49 77° W 18:20:31 10° S
Meteor 2-8 Rocket 4.3 18:11:05 10° S 18:17:13 74° E 18:23:22 10° NNE
ATLAS CENTAUR R/B 3.5 18:10:13 10° WSW 18:18:32 40° NW 18:20:44 24° NNE
Cosmos 1125 Rocket 4.0 18:17:59 10° N 18:22:14 39° NE 18:22:14 39° NE
SL-24 R/B - RUBIN 2 4.2 18:22:13 10° NW 18:26:35 53° WSW 18:30:46 10° SSE
Cosmos 2322 Rocket 3.2 18:24:09 10° N 18:27:49 29° NNE 18:27:49 29° NNE
SL-08 RB Rocket 3.6 18:29:08 10° SSE 18:33:46 85° ENE 18:38:24 10° NNW
Cosmos 1812 4.2 18:31:24 10° SW 18:34:57 35° WNW 18:37:47 15° NNW
Cosmos 1980 Rocket 3.0 18:29:50 10° NW 18:35:17 50° WSW 18:40:42 10° S
USA 234 4.1 18:32:36 10° SSE 18:38:53 49° SW 18:45:11 10° WNW
ISS -2.5 18:35:39 10° WNW 18:37:59 40° WNW 18:37:59 40° WNW
CZ-4C R/B 3.1 18:38:51 10° NW 18:46:15 78° WSW 18:54:48 10° SSE
Cosmos 1515 Rocket 4.0 18:42:42 10° S 18:46:04 52° S 18:46:04 52° S
SL-16 R/B 2.5 18:41:34 10° NNW 18:46:11 51° NNE 18:46:11 51° NNE
Cosmos 2082 Rocket 3.4 18:43:39 10° SW 18:48:54 38° WNW 18:52:35 18° N
Cosmos 44 Rocket 3.6 18:49:09 10° NW 18:53:09 59° NNW 18:53:09 59° NNW
Cosmos 2333 Rocket 4.4 18:53:57 10° N 18:54:26 12° N 18:54:26 12° N
COSMO-SKYMED 1 4.5 19:00:37 16° NNW 19:03:15 28° WNW 19:06:56 10° SW
ARGOS 4.5 18:59:29 10° SSW 19:04:32 39° W 19:09:36 10° NNW
Meteor 1-27 Rocket 4.3 19:02:52 10° S 19:06:41 47° S 19:06:41 47° S
DMSP B5D2-2 4.4 19:10:16 61° SW 19:10:16 61° SW 19:14:37 10° SSW
Cosmos 2298 Rocket 4.3 19:04:33 10° NNW 19:09:28 66° WNW 19:09:28 66° WNW
Cosmos 921 Rocket 4.4 19:06:46 10° SW 19:09:34 34° WSW 19:09:34 34° WSW
CZ-2C R/B 3.9 19:08:41 10° SW 19:09:35 14° SSW 19:09:35 14° SSW
GEOS 3 Rocket 4.3 19:19:06 50° NW 19:19:06 50° NW 19:22:57 10° NW
Cosmos 1818 4.1 19:14:41 10° NW 19:19:32 56° W 19:19:32 56° W
Okean O Rocket 4.2 19:23:58 10° SW 19:27:06 19° W 19:30:17 10° NW
Lacrosse 5 rocket 4.1 19:25:40 10° NW 19:26:13 14° NW 19:26:13 14° NW
BREEZE-M DEB (TANK) 4.2 19:22:01 10° SW 19:44:50 83° NW 19:44:57 83° NNW
Cosmos 2322 Rocket 4.5 20:08:08 10° NW 20:09:40 18° NW 20:09:40 18° NW
